GFSGBSN_prec_cthk_045.txt.gz
RH
36 42 48 49 49 46 39 30 28 27 26 25 23 21 20 20 19 19 16 18 18 16 17 18 20 19 16 22 24 29 27 23 27 27 28 28 28 29 28 30 35 37 45 40 50 54 50
32 37 38 49 50 50 47 39 32 30 28 27 24 22 22 21 19 18 17 18 17 17 19 20 21 19 21 23 25 30 27 28 29 27 27 27 29 31 36 38 36 41 46 51 58 61 53
25 30 33 41 40 48 50 46 39 34 31 29 26 24 23 21 20 18 17 18 17 20 21 21 21 20 24 21 29 30 30 31 31 33 35 34 34 37 41 45 41 44 49 56 57 59 54
17 24 27 32 38 39 46 48 44 37 32 29 26 25 22 21 21 19 19 18 19 22 22 23 23 24 29 26 31 29 31 32 34 37 41 42 42 42 47 45 44 47 40 50 49 46 40
17 18 26 29 28 34 41 44 43 38 30 26 25 23 22 21 21 19 19 18 21 23 23 23 25 29 30 30 30 31 33 35 37 42 44 44 47 48 48 41 42 37 39 42 41 36 32
21 19 16 26 28 31 36 39 41 38 29 25 24 22 22 22 22 21 20 19 22 23 23 22 27 32 31 37 35 32 33 33 44 46 47 48 48 48 46 40 37 34 36 36 37 32 35
20 21 21 16 27 24 31 41 40 36 29 25 24 22 23 23 23 21 20 20 25 32 27 27 32 31 38 38 35 32 32 35 46 48 48 47 47 46 47 40 40 38 29 29 28 25 28
16 21 18 17 15 23 27 33 45 37 31 24 23 23 24 24 24 23 21 27 31 42 35 23 27 31 38 40 37 34 31 36 47 50 51 50 52 48 41 35 35 33 40 32 32 26 28
12 16 19 17 16 22 21 31 44 42 34 26 23 23 25 26 25 23 21 24 30 35 40 33 26 32 38 38 36 40 34 38 48 47 49 56 50 38 36 35 36 36 37 51 40 30 31
17 15 20 17 15 15 24 28 43 47 39 26 24 25 26 28 26 25 22 23 33 39 46 32 27 30 35 36 37 38 33 39 46 48 46 57 49 41 39 41 35 44 31 34 33 27 37
21 19 16 17 15 13 21 26 36 48 43 29 26 26 28 30 31 25 32 31 40 44 53 31 28 36 38 34 41 30 29 38 46 42 41 50 42 35 37 44 28 54 33 37 37 34 42
20 15 16 15 13 12 16 21 36 40 46 34 27 27 30 30 27 26 31 41 47 55 55 34 33 33 35 34 31 36 28 33 49 44 44 52 44 38 49 35 37 37 39 43 37 39 43
23 20 14 14 15 14 12 19 36 41 47 41 29 29 31 33 33 28 35 50 56 55 36 33 31 32 31 31 30 27 31 30 41 39 46 49 48 39 36 37 35 36 41 51 51 42 39
31 23 20 20 22 19 14 20 31 48 47 43 32 30 33 33 31 32 44 57 60 35 38 32 27 30 30 32 28 27 34 30 31 41 40 47 48 37 33 38 51 44 44 45 42 36 33
37 33 24 22 23 21 19 24 32 47 55 50 34 34 37 32 29 40 50 62 54 38 36 32 28 29 31 31 29 27 31 37 36 31 47 48 48 43 34 32 36 47 33 36 36 39 32
49 39 35 29 28 22 21 20 26 47 61 54 38 42 38 37 31 51 53 57 51 41 37 33 29 27 33 28 26 26 33 38 44 34 38 47 49 42 32 33 31 30 39 34 32 37 32
54 49 40 33 35 33 28 23 26 46 65 55 51 52 41 39 35 60 51 52 50 46 43 33 29 29 31 28 26 27 33 36 32 29 29 40 37 50 35 30 35 40 29 27 30 37 37
62 60 47 40 40 34 32 24 35 55 72 57 59 59 52 41 43 53 52 49 50 49 41 34 32 30 30 33 29 33 30 37 29 31 31 37 41 41 38 35 27 28 31 31 34 34 30
69 66 56 45 43 38 36 27 35 56 71 60 65 67 70 46 41 52 49 52 54 46 41 39 30 28 28 32 33 31 30 37 31 30 33 35 29 36 41 31 25 27 30 28 32 33 30
75 74 63 54 43 39 37 32 42 59 75 67 70 72 74 57 41 52 50 52 53 47 46 43 34 32 29 28 30 34 32 28 25 27 26 26 23 34 40 44 47 42 34 34 34 34 26
85 81 70 58 47 42 35 44 54 73 71 85 79 59 55 54 41 53 56 59 53 44 41 45 42 37 29 31 31 34 36 33 29 28 28 30 31 32 32 35 35 35 33 34 33 30 32
84 85 77 61 48 48 41 70 68 81 87 94 81 59 58 48 44 62 61 62 51 42 43 47 41 33 34 37 35 38 37 39 36 32 33 32 37 35 37 34 30 30 29 30 28 28 26
92 84 75 62 55 50 48 63 76 94 82 75 72 70 61 58 55 62 56 60 48 50 51 52 39 39 41 46 42 38 42 43 46 44 44 46 44 43 41 35 31 36 27 26 26 26 27
81 79 64 59 58 52 62 74 77 85 77 83 93 83 81 68 56 52 62 61 48 52 59 50 46 51 42 38 36 35 34 41 46 48 47 44 45 49 47 43 53 24 23 22 23 23 25
72 66 59 62 53 52 80 78 74 78 81 93 97 89 79 74 62 57 64 52 47 71 70 57 46 43 41 41 38 40 41 43 42 43 41 40 44 48 55 37 30 25 22 23 23 21 23
57 57 62 60 52 75 87 81 87 93 95 96 96 91 78 65 62 51 62 51 53 66 66 56 50 43 39 40 37 39 39 35 46 43 40 39 40 40 41 54 60 33 28 26 27 29 27
57 59 59 56 63 90 90 95 94 94 93 92 94 81 75 61 60 68 56 46 47 60 64 59 54 46 42 40 46 43 42 37 43 47 55 55 56 56 54 59 44 34 31 28 32 36 30
62 68 65 77 90 95 98 97 98 95 85 87 88 85 77 63 59 64 56 46 52 63 63 56 55 52 48 44 47 45 49 39 38 36 42 46 52 58 56 62 54 29 28 30 36 28 32
67 72 83 96 95 96 99 97 92 85 81 90 93 83 73 68 59 65 51 46 47 63 66 59 54 51 48 46 44 48 52 46 42 44 36 43 39 42 37 42 37 29 31 33 31 31 35

GFSGBSN_prec_cthk_048.txt.gz
RH
31 33 36 38 46 46 49 47 41 32 28 27 26 24 24 23 21 20 18 17 15 15 15 14 16 17 17 23 23 28 23 23 22 24 28 33 33 30 30 31 34 39 38 39 41 60 58
19 29 31 34 38 45 47 50 49 42 34 30 28 27 26 24 22 21 19 17 15 16 15 17 18 17 19 24 25 27 26 23 25 26 28 32 34 33 35 42 36 40 41 45 51 54 53
18 18 26 31 33 35 38 46 50 49 42 36 31 29 28 25 23 20 19 17 16 16 16 18 20 18 23 21 27 33 28 29 31 36 32 34 33 36 40 43 45 45 42 42 49 52 60
16 16 15 20 30 32 33 39 45 49 46 40 34 30 29 25 22 20 19 17 16 16 17 19 21 20 23 24 28 28 28 33 34 35 37 41 40 39 46 50 42 43 43 50 47 47 59
15 15 14 14 21 28 29 33 36 45 46 42 36 30 27 25 22 20 20 17 17 16 17 19 22 26 27 29 29 27 29 36 37 37 39 41 41 44 49 49 47 45 44 42 38 42 54
15 16 14 13 13 23 27 29 34 42 43 40 34 28 24 24 22 21 20 18 17 15 18 21 22 27 24 32 34 33 37 34 40 41 44 46 46 48 50 50 46 45 39 38 38 31 44
17 16 16 14 13 14 23 24 31 35 41 39 34 26 23 23 23 22 20 19 29 34 29 24 30 27 35 36 34 29 35 32 39 47 53 49 51 51 52 45 44 43 41 39 37 31 28
18 16 16 18 14 12 16 22 25 33 41 38 34 25 22 23 24 23 21 23 33 36 35 30 20 25 32 35 32 31 34 33 40 52 46 52 58 51 48 45 43 37 40 38 32 27 22
26 20 16 15 18 15 12 18 21 30 39 42 35 26 21 23 24 23 21 21 25 32 33 32 25 21 27 34 32 32 31 33 46 50 49 49 63 54 54 44 37 37 45 41 45 32 21
26 26 24 17 14 17 13 12 21 26 35 42 39 27 21 23 26 26 25 22 21 33 35 33 28 24 29 34 32 33 35 33 38 50 51 56 57 51 49 42 39 48 48 45 47 44 34
23 24 24 23 18 17 15 14 19 24 34 42 43 30 22 25 31 29 39 29 31 41 55 33 30 25 28 32 37 34 36 32 36 49 52 61 49 52 42 41 43 41 44 46 39 37 40
19 20 22 22 21 21 20 15 15 24 32 43 45 35 24 25 27 29 31 34 36 48 50 31 26 27 36 35 37 35 30 28 33 46 50 51 58 55 46 46 32 31 33 35 37 39 44
26 20 21 20 21 19 18 16 13 20 31 41 45 37 25 30 32 29 30 41 49 48 32 37 30 30 34 35 37 30 34 28 30 44 45 42 41 42 38 34 28 27 35 45 81 74 46
28 28 28 27 18 19 17 16 15 17 30 45 42 41 27 28 38 37 37 52 52 34 42 32 32 31 35 37 35 34 31 31 27 38 38 50 56 45 32 31 45 45 44 64 66 62 51
34 28 29 29 26 19 16 17 15 21 30 42 43 42 31 28 35 38 48 58 45 38 41 42 37 37 37 36 37 34 27 33 30 30 38 49 53 55 45 34 31 54 47 45 41 47 42
38 35 37 36 29 24 18 20 19 19 35 41 45 46 34 32 37 41 50 49 44 37 42 44 43 35 35 35 34 38 31 33 32 35 38 48 58 67 47 35 24 25 33 40 37 38 34
49 38 39 40 37 30 22 23 19 18 35 47 54 49 39 38 44 44 45 44 41 41 49 45 43 36 32 41 38 33 31 33 37 49 43 40 55 59 53 34 24 39 43 29 27 42 52
55 50 50 50 43 36 32 27 22 19 35 54 66 59 43 42 49 37 38 39 36 44 53 45 46 39 36 42 39 31 31 39 33 37 34 29 44 46 41 39 31 33 40 39 51 36 41
60 56 56 52 51 46 36 35 29 22 36 52 61 71 67 48 42 36 36 42 38 47 58 52 48 38 36 40 44 37 41 39 38 30 30 36 35 41 38 44 35 29 21 25 31 42 38
61 59 62 62 57 50 45 38 32 22 34 53 57 74 77 66 39 35 37 42 44 48 48 52 46 36 38 41 49 41 39 36 34 33 29 32 36 33 38 32 49 50 47 33 39 49 38
59 55 69 65 63 62 48 46 36 25 33 63 62 58 55 59 53 40 42 42 41 48 47 53 48 38 38 38 44 41 41 38 31 27 24 26 27 25 26 35 41 40 45 43 39 39 42
59 65 79 74 72 64 54 50 42 27 42 64 63 66 54 52 56 47 42 42 44 49 48 51 53 43 38 44 37 41 43 41 30 28 25 26 30 37 38 37 36 35 31 31 30 31 31
58 83 86 79 76 70 59 48 41 31 59 70 62 57 68 51 54 47 37 46 48 58 52 51 47 48 42 48 53 51 45 50 42 42 36 36 38 45 44 37 34 38 26 24 23 26 31
78 91 92 86 80 70 63 50 42 42 70 58 56 67 78 67 51 39 43 53 55 60 54 62 57 45 50 57 63 50 49 51 45 47 48 52 52 57 53 48 54 28 25 24 25 25 24
79 92 93 87 83 73 59 48 42 52 70 67 73 71 90 78 51 48 46 50 57 55 57 64 53 48 54 55 59 55 47 42 38 39 47 51 53 56 63 48 36 32 29 26 27 27 27
85 95 94 80 73 69 59 50 36 60 70 70 70 80 98 78 58 39 48 70 69 63 62 82 65 51 63 62 53 50 53 37 41 39 37 39 45 50 49 57 61 37 31 28 27 33 30
84 92 84 74 65 62 61 49 40 59 73 73 77 80 96 81 65 58 56 55 60 67 66 70 66 53 59 55 59 50 40 35 45 53 55 50 53 59 56 60 49 40 36 34 39 43 36
78 79 78 70 61 60 55 45 61 83 81 73 74 94 91 83 84 68 55 65 63 65 69 84 74 57 50 52 52 50 47 43 40 41 45 48 56 63 61 71 63 35 33 34 40 36 32
75 67 61 59 59 61 51 65 77 82 77 82 98 97 99 96 86 75 70 60 64 69 78 83 59 49 43 46 50 51 50 49 43 45 37 45 40 47 44 49 37 33 34 35 33 34 37

GFSGBSN_prec_cthk_051.txt.gz
RH
22 25 30 32 35 36 40 46 47 46 42 34 28 25 25 25 24 23 22 19 17 15 13 14 13 14 15 17 18 25 26 21 22 22 24 30 33 31 31 34 36 34 39 45 55 59 60
22 22 23 26 32 35 37 38 46 48 47 41 34 30 28 28 26 25 23 19 17 15 13 14 14 15 17 20 22 26 24 25 25 26 26 29 32 34 34 36 47 43 44 45 52 53 60
22 22 24 28 26 31 33 33 41 46 48 49 42 36 32 30 28 26 24 19 17 15 14 14 15 17 17 15 23 28 29 29 30 33 33 30 32 34 38 46 43 43 45 46 49 62 58
21 21 20 21 20 24 29 31 32 39 45 45 46 41 35 31 29 27 23 20 17 15 14 14 15 17 16 18 21 27 27 29 36 37 37 37 36 37 40 44 45 42 43 47 52 63 62
20 20 18 19 20 18 20 28 29 33 41 44 43 41 36 31 29 26 23 20 17 14 14 14 16 25 19 21 24 24 27 30 34 39 41 43 38 36 40 43 47 45 50 49 50 61 61
22 20 19 17 16 15 15 21 27 27 34 37 41 39 35 30 28 24 22 20 17 17 17 16 16 22 17 23 28 29 30 30 36 44 45 46 41 45 49 48 52 48 45 42 45 47 50
21 18 18 18 15 15 14 15 23 26 30 36 44 39 32 27 25 22 22 20 27 31 30 25 21 20 23 29 33 31 31 29 35 46 52 49 52 53 54 49 49 50 47 42 37 41 43
33 27 20 18 16 15 15 14 16 23 26 33 42 41 32 25 23 21 22 22 29 29 25 23 21 24 23 28 32 32 35 31 32 45 50 49 58 56 51 55 53 48 48 47 41 41 27
32 30 30 20 17 15 15 15 14 19 25 29 40 43 35 25 21 20 22 21 23 27 25 16 18 19 20 24 29 31 37 33 35 47 50 50 46 50 47 51 53 55 50 49 46 40 24
27 29 30 28 23 18 17 17 15 14 22 26 36 44 39 26 21 25 26 25 20 24 35 20 22 26 18 22 29 29 33 32 37 42 46 46 45 52 53 52 58 60 50 50 41 35 30
21 23 27 28 28 23 18 17 16 16 18 25 32 43 44 28 25 33 34 28 29 33 54 28 28 23 18 24 30 29 40 40 35 44 51 47 52 51 55 52 57 48 36 40 43 47 49
29 23 20 24 26 26 22 19 16 18 18 25 31 38 46 31 23 34 36 33 35 46 52 29 25 23 23 24 30 32 44 38 34 43 44 46 47 49 55 48 46 32 33 42 47 55 58
28 28 24 21 21 24 25 23 21 19 18 25 27 35 42 35 26 36 36 39 47 56 22 31 26 25 26 27 29 31 38 34 30 39 46 49 46 50 52 49 46 36 34 54 59 64 51
37 28 27 28 25 21 20 22 20 21 21 26 32 38 47 36 36 39 36 50 57 30 28 27 27 28 28 29 29 35 36 39 29 32 45 51 49 48 52 49 50 47 40 54 58 72 64
45 34 29 27 28 29 27 19 18 16 19 30 40 46 48 40 39 43 46 55 40 28 25 31 29 33 32 28 36 39 37 29 31 27 37 50 53 54 53 50 49 40 52 53 56 53 58
53 48 36 33 27 27 29 28 22 14 15 27 47 49 37 49 38 49 50 45 38 28 39 40 43 32 34 31 33 48 40 29 31 32 34 45 57 57 57 50 39 37 34 52 49 40 36
53 52 46 37 39 28 27 30 28 16 14 28 43 54 48 62 41 52 52 45 39 28 41 44 43 38 34 38 34 47 42 33 31 38 42 46 48 50 53 54 35 40 39 40 37 43 53
48 54 50 43 42 37 37 39 29 20 17 35 44 48 52 47 59 53 49 40 41 26 43 46 41 39 39 33 43 46 42 34 35 46 52 48 49 63 63 47 45 39 39 43 54 39 45
47 50 50 48 49 45 37 39 37 24 21 37 49 43 54 43 50 50 46 41 33 28 42 46 42 40 37 36 47 50 40 41 37 46 41 46 46 47 49 55 45 43 39 32 38 47 43
48 44 43 43 52 48 47 48 40 31 24 40 50 58 55 59 43 38 45 39 33 26 43 47 47 43 41 41 41 51 48 49 39 42 39 31 33 35 39 35 31 43 42 44 42 54 42
62 50 45 52 61 55 52 51 49 36 30 49 51 47 51 68 58 47 46 37 34 34 43 48 50 48 42 44 38 52 57 48 44 38 33 33 31 34 31 27 30 40 42 47 47 47 51
66 58 54 57 60 62 63 63 53 45 38 58 59 40 44 53 70 60 48 38 32 27 40 44 52 45 40 42 39 49 59 45 41 39 32 28 30 25 29 28 34 33 35 33 43 39 35
71 68 63 66 64 67 73 62 62 59 45 52 51 41 44 41 63 72 50 43 34 32 35 43 45 48 46 38 35 44 47 41 39 40 31 28 29 35 37 32 34 38 28 26 26 26 29
77 75 66 66 65 73 74 68 65 63 38 50 49 54 54 50 56 58 51 43 39 34 39 45 44 49 50 49 43 41 44 47 47 49 41 40 40 47 51 45 45 30 28 26 28 30 30
77 76 68 60 68 79 77 75 73 60 44 50 55 64 55 53 54 53 45 42 42 43 50 53 52 50 60 55 57 58 69 60 56 58 51 48 58 66 61 59 43 34 32 30 30 32 29
77 72 57 61 82 84 82 81 70 63 40 54 62 59 69 65 53 58 46 40 43 47 59 59 61 55 70 70 66 69 78 59 55 47 39 43 48 60 64 60 53 39 33 32 31 39 32
78 63 67 89 91 87 83 83 66 62 46 54 60 63 59 78 66 56 46 36 40 56 69 71 64 58 86 77 75 66 71 53 52 49 45 52 58 58 62 58 49 38 33 34 40 43 38
63 74 93 98 99 93 81 74 63 53 49 53 61 60 60 63 66 74 66 57 45 53 64 69 61 70 86 87 76 66 63 48 46 47 51 52 58 61 65 65 58 38 38 40 42 36 34
74 94 97 98 95 81 69 63 55 48 44 51 62 61 65 72 87 89 75 55 48 47 54 54 54 55 70 71 72 76 65 52 41 51 42 46 41 48 50 52 40 35 36 34 36 38 39

GFSGBSN_prec_cthk_054.txt.gz
RH
23 24 25 27 30 31 34 35 36 44 45 44 42 36 30 26 25 24 24 24 22 21 17 14 12 12 13 13 13 21 24 23 21 21 21 30 33 36 37 37 40 41 38 43 45 46 54
26 24 22 21 21 24 27 32 35 37 44 45 45 42 36 30 28 27 27 25 23 21 17 14 13 13 14 17 18 20 23 26 26 26 25 30 34 37 37 39 45 49 48 55 53 54 53
27 26 24 23 23 23 24 29 33 34 38 45 45 46 43 36 32 30 29 27 24 22 17 14 13 13 14 11 17 20 24 27 31 34 29 32 34 38 38 42 44 47 52 53 57 57 55
26 26 25 23 22 21 22 26 35 38 33 39 40 42 42 40 34 32 30 27 24 22 18 13 13 14 14 12 16 20 24 29 32 35 35 36 35 34 39 43 42 43 47 50 56 54 57
30 27 25 24 21 22 22 24 29 32 32 34 39 43 41 39 35 32 30 27 23 21 17 13 13 17 14 16 16 19 27 31 32 35 36 38 40 36 37 47 47 45 51 52 54 53 57
31 31 27 25 23 21 21 21 20 25 31 31 33 37 43 41 35 30 28 26 22 22 23 17 16 17 14 20 21 24 29 31 33 39 45 45 42 41 46 48 55 55 51 52 50 50 51
34 32 32 25 24 22 22 20 20 20 31 32 31 34 38 38 34 28 26 25 24 29 27 22 18 14 18 21 22 26 28 31 34 48 52 48 53 54 49 53 55 56 52 52 48 44 48
32 34 33 32 24 23 22 23 19 17 22 27 31 33 39 39 34 26 23 23 28 27 23 16 16 20 21 24 27 25 29 29 31 47 52 45 48 52 52 54 55 57 53 47 43 41 47
24 28 32 34 33 22 21 19 21 20 19 24 28 28 39 38 34 26 22 26 26 23 28 15 13 16 20 22 24 23 28 29 32 39 49 51 46 50 51 56 52 49 50 47 42 42 36
29 27 26 30 31 32 24 20 20 21 16 19 26 28 37 42 35 27 28 30 23 23 31 19 18 17 18 21 21 23 27 30 33 38 50 48 46 45 50 53 54 49 48 47 45 40 36
29 28 28 23 28 30 30 26 23 23 20 18 25 28 36 42 33 33 41 34 29 31 31 25 22 22 19 18 23 23 28 29 32 38 49 49 48 49 48 50 53 42 50 46 46 45 37
39 35 28 29 22 25 28 27 23 22 23 19 23 27 35 42 37 41 42 37 37 43 44 28 26 24 18 18 25 26 29 32 30 40 42 48 52 49 49 52 49 45 46 48 50 51 52
41 40 37 27 29 23 25 27 26 21 23 25 30 32 32 40 45 38 44 45 49 52 22 28 24 23 21 20 26 30 30 33 36 42 45 47 48 45 46 49 46 45 45 57 60 64 56
35 47 41 38 28 29 23 26 27 26 20 25 23 38 33 33 46 43 44 54 57 34 24 28 26 26 24 23 25 30 30 31 32 43 46 50 49 48 46 46 50 53 52 49 49 64 56
30 39 48 42 35 35 29 28 30 27 24 23 32 39 45 32 46 47 53 62 48 34 18 27 27 28 26 26 26 29 30 28 29 33 44 51 53 53 50 49 44 47 47 44 53 56 63
47 38 49 47 44 35 33 29 30 31 25 24 33 48 37 38 45 50 58 52 47 28 33 34 31 29 28 29 29 33 32 26 28 32 37 51 53 55 55 52 47 41 41 52 57 48 43
56 42 58 58 51 42 29 33 31 29 25 25 34 52 42 49 54 56 56 55 44 22 41 45 39 36 30 31 28 33 31 30 28 33 38 45 51 53 48 45 45 42 35 36 38 49 52
69 55 59 61 57 50 37 39 37 38 27 25 38 54 39 61 71 54 50 50 40 27 44 50 45 45 33 31 32 32 30 28 32 35 48 46 52 59 47 49 49 53 40 42 56 49 51
75 59 59 57 60 55 48 43 38 42 31 27 41 55 48 52 65 57 50 49 39 26 42 50 50 46 38 34 34 33 30 31 33 38 45 53 59 64 54 47 49 46 41 44 46 50 47
79 64 63 51 54 62 52 51 49 45 39 33 44 55 66 53 42 50 49 47 44 23 36 45 54 54 44 38 36 36 36 41 36 39 47 51 57 55 54 45 50 43 43 46 49 57 46
82 72 67 52 52 57 54 53 51 51 47 41 54 53 46 52 51 51 52 48 45 29 31 39 53 53 50 43 38 41 40 43 42 38 47 53 52 45 36 31 35 35 34 35 42 46 49
89 79 67 62 45 54 52 51 56 56 56 52 62 49 45 43 41 48 47 45 44 31 28 33 43 49 50 44 40 40 40 40 41 44 44 49 45 42 40 38 35 33 30 34 34 44 45
93 82 70 69 48 50 48 52 61 64 65 53 55 48 47 37 43 50 43 41 39 32 28 25 40 50 45 38 40 41 41 38 51 52 47 49 49 46 41 34 32 38 26 26 30 33 35
95 82 74 68 52 47 47 49 63 69 65 48 51 56 52 52 47 44 44 47 43 31 30 25 36 50 44 44 46 47 48 46 48 56 46 46 45 41 44 36 45 27 23 24 26 28 29
94 82 74 66 57 51 60 63 71 74 67 49 54 61 60 51 49 49 49 55 54 38 34 31 35 48 54 51 57 59 58 53 57 56 47 46 52 50 51 53 42 35 32 30 33 39 37
92 83 75 64 63 62 66 74 71 70 62 52 62 59 60 62 50 47 53 51 54 52 46 34 37 57 62 62 68 66 64 55 58 53 62 54 56 54 63 66 66 43 33 33 36 46 39
87 81 78 72 71 72 72 77 62 70 62 56 67 71 64 58 58 48 44 42 41 48 45 39 42 56 56 66 80 77 70 57 64 66 65 62 67 56 59 55 49 39 36 36 39 38 40
86 88 81 75 70 68 72 80 79 77 64 55 67 75 66 64 64 69 54 40 40 42 38 41 56 63 70 81 84 84 82 67 63 61 65 53 53 57 62 63 54 38 34 37 42 48 47
83 81 82 75 64 63 82 80 67 73 68 60 72 75 73 65 61 60 62 52 48 46 38 42 49 60 65 79 78 83 89 78 65 68 60 53 38 43 45 47 41 39 38 40 41 38 38

GFSGBSN_prec_cthk_057.txt.gz
RH
29 28 27 26 27 32 36 36 36 37 37 43 44 44 42 37 32 28 27 25 24 24 23 22 19 14 12 12 11 17 19 21 22 22 21 29 34 35 38 39 43 36 40 42 39 46 56
29 28 29 28 27 25 28 32 35 34 35 34 42 42 42 41 37 32 29 27 26 26 25 23 19 14 12 14 14 17 19 23 25 25 25 31 35 37 38 41 45 47 52 54 50 55 55
31 29 28 27 27 27 27 24 25 28 34 36 34 40 43 44 42 37 32 30 29 27 26 23 19 13 12 12 13 17 19 25 28 28 29 33 34 38 40 42 48 53 53 53 49 51 53
31 29 31 27 28 26 26 26 25 25 30 35 36 37 41 41 41 40 35 32 30 28 26 24 18 13 11 11 11 16 21 28 30 30 33 35 34 34 37 42 48 51 49 49 50 54 55
42 37 30 29 27 26 25 26 26 25 28 32 35 39 47 39 40 39 35 31 30 28 26 23 18 14 11 12 14 17 24 26 28 30 35 39 40 38 37 46 50 50 50 49 48 57 55
33 40 40 36 30 27 26 26 31 24 23 28 31 38 51 42 41 39 37 31 29 28 26 25 22 18 11 16 17 20 24 27 29 32 39 42 41 38 41 43 51 51 52 53 52 56 58
21 25 33 39 37 36 28 25 27 26 22 23 29 35 37 39 40 40 38 30 30 34 32 23 20 13 15 17 18 22 24 25 28 35 44 48 53 51 47 47 51 53 52 54 50 52 54
29 22 23 27 35 36 35 28 25 29 24 21 28 33 34 53 48 41 35 30 32 34 28 20 18 16 18 21 22 22 24 27 27 36 43 50 56 54 54 51 50 50 54 54 46 47 48
28 28 25 22 26 32 36 34 28 24 28 26 27 30 33 36 51 45 35 32 34 28 28 18 17 15 15 20 23 22 26 26 27 30 41 49 50 52 52 51 50 50 54 53 50 42 42
25 28 28 28 22 25 30 35 33 25 25 26 27 36 36 38 48 43 36 42 32 27 32 20 20 15 14 20 20 21 25 26 29 29 36 46 50 51 50 49 48 52 52 51 49 45 40
21 26 33 28 28 24 24 28 33 32 23 27 27 32 41 41 40 40 50 42 34 34 31 18 20 20 15 19 19 19 24 26 28 31 38 46 48 46 48 47 45 47 47 46 46 46 46
31 23 35 38 32 27 28 26 28 30 27 28 28 29 33 34 41 43 56 47 45 47 36 27 24 24 20 18 20 22 25 28 30 32 37 45 50 51 48 47 44 42 45 47 49 50 54
42 33 23 36 39 31 27 27 28 31 29 24 26 30 44 37 35 52 53 55 58 61 23 29 26 25 22 18 23 23 24 28 30 33 37 45 52 52 51 47 45 42 45 49 50 57 53
49 42 34 32 38 38 32 29 29 32 30 27 23 27 40 37 46 52 59 67 62 42 31 30 25 25 22 18 23 24 25 28 30 29 40 46 52 48 50 49 51 48 46 55 43 54 53
58 53 43 33 36 39 39 30 29 30 34 31 25 27 43 34 50 56 65 67 54 39 28 28 28 29 27 21 24 26 27 27 29 28 33 45 46 50 51 53 51 50 51 44 51 54 62
67 59 56 45 36 35 43 38 34 29 31 35 31 30 29 34 62 67 67 59 50 39 37 34 32 27 26 24 27 29 29 25 26 29 26 31 42 49 56 55 55 54 53 50 54 52 52
83 69 62 58 45 34 50 43 38 37 39 35 37 36 23 34 62 69 57 58 51 37 43 43 44 34 27 29 26 29 28 25 26 28 30 30 35 45 49 53 51 55 54 51 48 56 51
94 85 69 64 58 47 37 48 47 44 41 42 37 40 27 33 68 62 60 53 49 34 41 47 49 42 33 30 30 30 29 28 28 31 35 33 35 42 38 46 48 49 51 55 50 44 52
98 97 91 69 68 56 47 48 49 52 51 49 40 43 42 34 59 60 52 55 48 37 42 42 50 50 43 35 33 32 29 30 30 33 38 40 45 48 42 42 47 54 51 51 52 50 53
99 98 98 83 71 61 58 62 54 50 53 53 43 56 57 52 39 58 58 54 50 33 40 45 50 56 51 46 34 33 33 34 36 35 36 37 44 42 49 47 52 56 52 50 54 60 49
98 98 98 92 74 62 65 68 59 49 58 61 54 46 43 56 46 55 56 56 49 42 40 43 48 54 54 54 42 38 38 35 38 38 42 39 44 48 46 50 47 47 52 55 50 45 45
99 98 98 97 78 65 65 68 54 58 63 69 54 54 48 40 41 49 53 56 57 46 37 38 41 46 49 53 47 44 41 39 39 44 44 45 45 48 50 48 44 42 39 42 43 38 38
99 98 98 98 82 72 72 68 55 60 70 77 48 58 50 42 43 51 44 46 46 53 38 32 33 44 46 53 56 51 47 43 40 44 48 48 51 52 47 46 46 52 39 37 34 32 30
99 98 98 98 84 73 69 64 55 63 71 75 48 54 56 47 46 36 38 45 40 43 42 27 26 40 46 54 54 50 49 48 47 49 50 55 60 56 56 48 52 29 25 23 24 24 22
99 98 98 95 83 74 69 63 52 60 77 78 62 55 63 62 47 47 45 42 39 36 44 32 29 29 47 59 64 59 61 56 53 53 51 50 56 64 56 51 38 31 26 27 29 30 31
98 98 98 91 83 77 76 65 46 65 74 81 68 60 70 68 47 43 46 44 41 35 40 34 32 37 48 67 77 69 68 57 61 55 57 55 55 63 62 56 53 35 35 37 39 41 34
98 98 98 91 81 78 72 57 49 68 80 82 69 66 67 69 65 53 50 45 38 34 36 35 36 44 48 62 79 72 66 59 61 60 63 68 69 70 73 63 57 40 27 30 39 34 37
98 98 96 83 76 69 64 58 47 63 76 76 68 74 73 70 61 55 53 54 39 35 46 54 46 49 59 66 77 79 70 64 63 60 56 57 67 72 76 69 58 33 35 32 32 36 38
98 95 87 79 74 69 65 51 53 92 87 74 67 67 65 76 70 69 56 43 36 37 44 58 56 48 47 63 72 72 80 69 65 75 63 60 55 66 67 60 38 35 32 33 35 39 45